Big Rapids, MI

9:56 PM EST on January 20, 2017 (GMT -0500)
Roben-Hood

Weather History for KRQB - May, 2012

Change the Weather History Date:

Thursday, May 31, 2012

  Actual Average Record
Temperature  
Mean Temperature 46 °F -  
Max Temperature 56 °F 73 °F 90 °F (1988)
Min Temperature 37 °F 48 °F 30 °F (2001)
Degree Days  
Heating Degree Days 18    
Moisture  
Dew Point 41 °F    
Average Humidity 74    
Maximum Humidity 100    
Minimum Humidity 51    
Precipitation  
Precipitation 0.00 in - - ()
Sea Level Pressure  
Sea Level Pressure 29.99 in    
Wind  
Wind Speed 2 mph (East)    
Max Wind Speed 9 mph    
Max Gust Speed 16 mph    
Visibility 10 miles    
Events      
Averages and records for this station are not official NWS values.
T = Trace of Precipitation, MM = Missing Value Source: NWS Daily Summary

Daily Weather History Graph

Daily Weather History Graph

Search for Another Location

Airport or City:

Trip Planner

Search our weather history database for the weather conditions in past years. The results will help you decide how hot, cold, wet, or windy it might be!

Date:

Astronomy

May. 31, 2012 Rise Set
Actual Time 6:03 AM EDT 9:16 PM EDT
Civil Twilight 5:28 AM EDT 9:51 PM EDT
Nautical Twilight 4:43 AM EDT 10:37 PM EDT
Astronomical Twilight 3:48 AM EDT 11:32 PM EDT
Moon 4:59 PM EDT (5/31) 3:09 AM EDT (5/31)
Length of Visible Light 16h 23m
Length of Day
15h 13m
Waxing Gibbous, 80% of the Moon is Illuminated
May 31
Waxing Gibbous
Jun 4
Full
Jun 11
Last Quarter
Jun 19
New
Jun 26
First Quarter

Hourly Weather History & Observations

Time (EDT) Temp. Windchill Dew Point Humidity Pressure Visibility Wind Dir Wind Speed Gust Speed Precip Events Conditions
12:14 AM 41.0 °F - 37.8 °F 88% 29.96 in 10.0 mi Calm Calm - N/A   Clear
12:34 AM 40.3 °F - 37.6 °F 90% 29.96 in 10.0 mi Calm Calm - N/A   Clear
12:55 AM 39.4 °F - 37.2 °F 92% 29.97 in 10.0 mi Calm Calm - N/A   Clear
1:14 AM 37.9 °F - 37.4 °F 98% 29.97 in 10.0 mi Calm Calm - N/A   Clear
1:35 AM 37.6 °F - 37.6 °F 100% 29.97 in 10.0 mi Calm Calm - N/A   Clear
1:55 AM 37.0 °F - 37.0 °F 100% 29.97 in 10.0 mi Calm Calm - N/A   Clear
2:14 AM 39.0 °F - 39.0 °F 100% 29.98 in 10.0 mi Calm Calm - N/A   Clear
2:35 AM 39.7 °F - 39.7 °F 100% 29.99 in 10.0 mi Calm Calm - N/A   Clear
2:55 AM 40.5 °F 38.4 °F 40.5 °F 100% 30.00 in 10.0 mi West 3.5 mph - N/A   Mostly Cloudy
3:14 AM 40.6 °F - 40.5 °F 99% 30.00 in 10.0 mi Calm Calm - N/A   Overcast
3:35 AM 41.0 °F - 40.6 °F 99% 30.00 in 10.0 mi Calm Calm - N/A   Overcast
3:55 AM 41.2 °F - 41.0 °F 99% 30.01 in 10.0 mi Calm Calm - N/A   Mostly Cloudy
4:14 AM 41.5 °F - 41.0 °F 98% 30.01 in 10.0 mi Calm Calm - N/A   Overcast
4:35 AM 41.9 °F - 40.6 °F 95% 30.00 in 10.0 mi Calm Calm - N/A   Overcast
4:55 AM 41.9 °F - 40.8 °F 96% 30.00 in 10.0 mi Calm Calm - N/A   Overcast
5:14 AM 42.1 °F - 41.2 °F 97% 30.01 in 10.0 mi Calm Calm - N/A   Overcast
5:35 AM 42.1 °F 39.2 °F 40.8 °F 95% 30.00 in 10.0 mi North 4.6 mph - N/A   Overcast
5:55 AM 42.1 °F - 40.8 °F 95% 30.00 in 10.0 mi Calm Calm - N/A   Overcast
6:14 AM 42.1 °F 40.2 °F 40.6 °F 95% 30.01 in 10.0 mi North 3.5 mph - N/A   Overcast
6:35 AM 42.1 °F - 41.0 °F 96% 30.01 in 10.0 mi Calm Calm - N/A   Overcast
6:55 AM 42.8 °F - 41.2 °F 94% 30.01 in 10.0 mi Calm Calm - N/A   Mostly Cloudy
7:14 AM 43.3 °F - 41.0 °F 91% 30.01 in 10.0 mi Calm Calm - N/A   Mostly Cloudy
7:35 AM 44.1 °F - 39.6 °F 84% 30.01 in 10.0 mi Calm Calm - N/A   Mostly Cloudy
7:55 AM 44.2 °F - 39.0 °F 82% 30.02 in 10.0 mi Calm Calm - N/A   Mostly Cloudy
8:14 AM 44.6 °F - 38.3 °F 79% 30.03 in 10.0 mi Calm Calm - N/A   Scattered Clouds
8:35 AM 46.4 °F 43.5 °F 38.1 °F 73% 30.02 in 10.0 mi NNE 5.8 mph - N/A   Scattered Clouds
8:55 AM 46.0 °F 42.5 °F 37.8 °F 73% 30.02 in 10.0 mi NNE 6.9 mph - N/A   Mostly Cloudy
9:14 AM 46.6 °F - 38.1 °F 72% 30.03 in 10.0 mi Calm Calm - N/A   Mostly Cloudy
9:35 AM 47.5 °F - 39.2 °F 73% 30.03 in 10.0 mi NE 3.5 mph - N/A   Scattered Clouds
9:55 AM 47.8 °F - 39.4 °F 72% 30.03 in 10.0 mi NE 5.8 mph - N/A   Scattered Clouds
10:14 AM 49.3 °F - 40.3 °F 71% 30.02 in 10.0 mi NE 5.8 mph - N/A   Mostly Cloudy
10:55 AM 52.0 °F - 41.5 °F 68% 30.02 in 10.0 mi East 8.1 mph - N/A   Scattered Clouds
11:14 AM 52.5 °F - 41.5 °F 66% 30.02 in 10.0 mi East 3.5 mph - N/A   Mostly Cloudy
11:35 AM 52.9 °F - 41.5 °F 65% 30.02 in 10.0 mi NE 4.6 mph - N/A   Scattered Clouds
11:54 AM 53.8 °F - 41.5 °F 63% 30.02 in 10.0 mi ENE 8.1 mph - N/A   Scattered Clouds
12:15 PM 54.5 °F - 41.7 °F 62% 30.01 in 10.0 mi ESE 5.8 mph - N/A   Mostly Cloudy
12:35 PM 55.2 °F - 41.4 °F 60% 30.02 in 10.0 mi SE 5.8 mph 16.1 mph N/A   Mostly Cloudy
12:54 PM 55.0 °F - 41.0 °F 59% 30.02 in 10.0 mi ENE 6.9 mph - N/A   Scattered Clouds
1:15 PM 55.4 °F - 41.4 °F 59% 30.01 in 10.0 mi SE 6.9 mph - N/A   Scattered Clouds
1:35 PM 54.9 °F - 40.8 °F 59% 30.01 in 10.0 mi East 8.1 mph - N/A   Mostly Cloudy
1:54 PM 55.4 °F - 41.5 °F 60% 30.01 in 10.0 mi East 6.9 mph - N/A   Mostly Cloudy
2:15 PM 55.4 °F - 41.5 °F 60% 30.01 in 10.0 mi ESE 5.8 mph - N/A   Mostly Cloudy
2:35 PM 56.3 °F - 41.2 °F 57% 30.00 in 10.0 mi East 9.2 mph 16.1 mph N/A   Scattered Clouds
2:54 PM 56.3 °F - 41.9 °F 59% 29.99 in 10.0 mi East 8.1 mph - N/A   Mostly Cloudy
3:15 PM 56.1 °F - 41.7 °F 58% 30.00 in 10.0 mi East 6.9 mph - N/A   Mostly Cloudy
3:35 PM 55.8 °F - 42.4 °F 61% 30.00 in 10.0 mi East 6.9 mph - N/A   Overcast
3:54 PM 56.3 °F - 42.1 °F 59% 29.99 in 10.0 mi East 6.9 mph - N/A   Mostly Cloudy
4:15 PM 55.9 °F - 43.0 °F 62% 29.97 in 10.0 mi ENE 5.8 mph - N/A   Overcast
4:34 PM 55.9 °F - 43.5 °F 63% 29.96 in 10.0 mi East 9.2 mph - N/A   Mostly Cloudy
4:54 PM 55.9 °F - 44.2 °F 65% 29.96 in 10.0 mi East 4.6 mph - N/A   Mostly Cloudy
5:15 PM 55.6 °F - 43.2 °F 63% 29.97 in 10.0 mi ESE 6.9 mph - N/A   Overcast
5:35 PM 55.6 °F - 43.3 °F 63% 29.98 in 10.0 mi East 4.6 mph - N/A   Overcast
5:54 PM 55.8 °F - 43.5 °F 63% 29.98 in 10.0 mi ENE 4.6 mph - N/A   Overcast
6:15 PM 55.8 °F - 43.3 °F 63% 29.98 in 10.0 mi East 5.8 mph - N/A   Overcast
6:34 PM 55.6 °F - 43.2 °F 63% 29.97 in 10.0 mi East 4.6 mph - N/A   Overcast
6:54 PM 55.4 °F - 43.2 °F 63% 29.98 in 10.0 mi East 3.5 mph - N/A   Overcast
7:15 PM 55.0 °F - 43.7 °F 66% 29.97 in 10.0 mi East 3.5 mph - N/A   Overcast
7:34 PM 54.9 °F - 42.4 °F 63% 29.96 in 10.0 mi East 5.8 mph - N/A   Overcast
7:55 PM 54.9 °F - 43.0 °F 64% 29.96 in 10.0 mi ESE 3.5 mph - N/A   Overcast
8:15 PM 54.5 °F - 42.1 °F 63% 29.95 in 10.0 mi East 8.1 mph - N/A   Overcast
8:34 PM 54.0 °F - 42.8 °F 66% 29.95 in 10.0 mi ENE 3.5 mph - N/A   Overcast
8:55 PM 53.6 °F - 42.1 °F 65% 29.94 in 10.0 mi East 4.6 mph - N/A   Overcast
9:14 PM 52.9 °F - 42.3 °F 67% 29.93 in 10.0 mi North - - N/A   Overcast
9:34 PM 52.7 °F - 42.1 °F 67% 29.93 in 10.0 mi East 4.6 mph - N/A   Overcast
9:55 PM 52.7 °F - 40.5 °F 63% 29.94 in 10.0 mi East 5.8 mph - N/A   Overcast
10:15 PM 52.7 °F - 38.7 °F 59% 29.94 in 10.0 mi East 5.8 mph - N/A   Overcast
10:34 PM 52.2 °F - 37.6 °F 58% 29.94 in 10.0 mi East 5.8 mph - N/A   Overcast
10:55 PM 52.0 °F - 36.3 °F 55% 29.93 in 10.0 mi ENE 5.8 mph - N/A   Overcast
11:14 PM 51.8 °F - 34.0 °F 51% 29.93 in 10.0 mi ENE 3.5 mph - N/A   Overcast
11:34 PM 51.1 °F - 34.3 °F 53% 29.93 in 10.0 mi Calm Calm - N/A   Overcast